Flag for Denmark Weather past 2 weeks in Skagen, Denmark

Now
45 °F

Clear.


Feels Like: 37 °F
Forecast: 35 / 46 °F
Wind: 16 mph from West

Location: Gothenburg / Save

Current Time: Dec 23, 2014 at 2:53:37 AM

Latest Report: Dec 23, 2014 at 2:20 AM


Visibility: 10 mi

Pressure: 29.39 "Hg

Humidity: 81%

Dew point: 39 °F

Location of SkagenLocation

Historic Weather in Skagen — Graph

°F

Skagen temperature yesterday

Maximum temperature yesterday: 46 °F (at 12:20 AM)
Minimum temperature yesterday: 43 °F (at 9:20 PM)
Average temperature yesterday: 45 °F

Past Weeks' High & Low Weather Summary

 TemperatureHumidityPressure
High46 °F (Dec 18, 2:20 PM)100% (Dec 17, 9:50 PM)30.07 "Hg (Dec 17, 9:50 PM)
Low28 °F (Dec 17, 8:50 AM)57% (Dec 13, 9:20 PM)28.91 "Hg (Dec 12, 6:50 PM)
Average41 °F84%29.45 "Hg
* Reported Dec 8 1:20 AM — Dec 23 1:50 AM, Skagen, Weather by CustomWeather, © 2014

Note: Actual official high and low records may vary slightly from our data, if they occured in-between our weather recording intervals... More about our weather records

Advertising

Skagen weather history for previous 24 hours

 ConditionsComfort  
Time TempWeatherWind HumidityBarometerVisibility
1:50 AM
Dec 23
45 °FPassing clouds.15 mph76%29.39 "HgN/A
1:20 AM45 °FPassing clouds.16 mph76%29.39 "HgN/A
12:50 AM45 °FPartly cloudy.17 mph81%29.39 "HgN/A
12:20 AM45 °FPassing clouds.12 mph81%29.39 "HgN/A
11:20 PM
Dec 22
45 °FPassing clouds.13 mph81%29.39 "HgN/A
10:20 PM45 °FPartly cloudy.10 mph81%29.39 "HgN/A
9:50 PM45 °FPassing clouds.10 mph81%29.39 "HgN/A
9:20 PM43 °FClear.13 mph81%29.39 "Hg10 mi
8:50 PM45 °FPassing clouds.15 mph76%29.39 "HgN/A
8:20 PM45 °FPassing clouds.14 mph76%29.39 "HgN/A
7:50 PM45 °FPassing clouds.15 mph81%29.39 "HgN/A
7:20 PM45 °FPassing clouds.12 mph81%29.39 "HgN/A
6:50 PM45 °FClear.16 mph76%29.36 "Hg10 mi
6:20 PM45 °FPassing clouds.15 mph81%29.36 "HgN/A
5:50 PM45 °FPassing clouds.10 mph81%29.36 "HgN/A
5:20 PM45 °FClear.13 mph81%29.36 "Hg10 mi
4:50 PM45 °FPassing clouds.15 mph81%29.36 "HgN/A
4:20 PM45 °FPassing clouds.16 mph81%29.36 "HgN/A
3:50 PM45 °FMostly cloudy.15 mph87%29.36 "HgN/A
3:20 PM45 °FScattered clouds.13 mph81%29.33 "HgN/A
2:50 PM45 °FSunny.16 mph81%29.33 "Hg10 mi
2:20 PM45 °FSunny.17 mph81%29.33 "Hg10 mi
1:50 PM45 °FSunny.14 mph81%29.33 "Hg10 mi
1:26 PM45 °FSunny.13 mph81%29.33 "Hg10 mi
12:50 PM45 °FSunny.15 mph87%29.33 "Hg10 mi
12:26 PM45 °FSunny.13 mph87%29.33 "Hg10 mi
11:50 AM45 °FSunny.9 mph87%29.33 "Hg10 mi
11:20 AM45 °FScattered clouds.12 mph93%29.33 "HgN/A
10:50 AM46 °FScattered clouds.14 mph87%29.30 "HgN/A
10:20 AM46 °FPassing clouds.15 mph87%29.33 "HgN/A
9:50 AM46 °FPassing clouds.13 mph82%29.30 "HgN/A
9:20 AM46 °FBroken clouds.14 mph87%29.30 "HgN/A
8:50 AM46 °FPartly cloudy.15 mph87%29.33 "HgN/A
8:20 AM46 °FMostly cloudy.14 mph87%29.33 "HgN/A
7:50 AM46 °FPartly cloudy.12 mph87%29.33 "HgN/A
7:20 AM46 °FMostly cloudy.13 mph87%29.33 "HgN/A
6:50 AM46 °FPartly cloudy.14 mph87%29.33 "HgN/A
6:20 AM46 °FLow clouds.13 mph87%29.33 "HgN/A
5:50 AM46 °FLow clouds.14 mph87%29.33 "HgN/A
5:20 AM46 °FLow clouds.15 mph93%29.33 "HgN/A
4:50 AM46 °FLight rain. Partly cloudy.14 mph93%29.33 "Hg6 mi
4:20 AM46 °FDrizzle. Mostly cloudy.13 mph93%29.33 "Hg6 mi
3:50 AM46 °FClear.14 mph93%29.33 "Hg10 mi
3:20 AM46 °FDrizzle. Low clouds.12 mph93%29.36 "Hg6 mi
2:50 AM45 °FLight rain. Low clouds.10 mph93%29.36 "Hg4 mi
Weather by CustomWeather, © 2014

See weather overviewHow to use our weather pages